Regional Weather Roundup
Issued by NWS

Home | Current Version | Previous Version | Graphics & Text | Print | Product List | Glossary On
Versions: 1 2 3 4 5 6 7 8 9 10 11 12 13 14 15 16 17 18 19 20 21 22 23 24 25 26 27 28 29 30 31 32 33 34 35 36 37 38 39 40 41 42 43 44 45 46 47 48 49 50
000
ASUS43 KOAX 141610
RWRNE

WEATHER ROUNDUP FOR NEBRASKA
NATIONAL WEATHER SERVICE OMAHA NE
1000 AM CST SUN FEB 14 2016

NOTES: SATELLITE DATA IS BEING USED TO AUGMENT CLOUD COVER ABOVE
       12000 FEET.
       "FAIR" INDICATES FEW OR NO CLOUDS BELOW 12,000 FEET WITH NO
       SIGNIFICANT WEATHER AND/OR OBSTRUCTIONS TO VISIBILITY.

  * THESE STATIONS DO NOT REPORT WEATHER SUCH AS RAIN...SNOW OR FOG.

NEZ001>004-019>022-054>056-141700-
NEBRASKA PANHANDLE

CITY           SKY/WX    TMP DP  RH WIND       PRES   REMARKS
SCOTTSBLUFF    CLOUDY    33  27  78 CALM      29.89S
ALLIANCE       CLOUDY    33  24  69 W8        29.87S WCI  26
CHADRON        CLOUDY    34  26  72 SW8       29.86F WCI  27
KIMBALL        CLOUDY    36  25  65 SW10      29.91R WCI  28
SIDNEY         CLOUDY    37  26  64 W10       29.91R WCI  30
$$

NEZ057>060-069>072-079>082-141700-
SOUTHWEST NEBRASKA

CITY           SKY/WX    TMP DP  RH WIND       PRES   REMARKS
NORTH PLATTE   SUNNY     38  27  64 W13       29.89R WCI  30
IMPERIAL       SUNNY     36  27  69 W8        29.92S WCI  30
LEXINGTON      SUNNY     38  28  67 W9        29.88F WCI  32
MCCOOK         CLOUDY    36  27  69 W8        29.91F WCI  30
OGALLALA       CLOUDY    35  27  72 SW6       29.90R WCI  30
$$

NEZ005>010-023>029-035>040-094-141700-
NORTH CENTRAL NEBRASKA

CITY           SKY/WX    TMP DP  RH WIND       PRES   REMARKS
VALENTINE      MOSUNNY   35  29  78 W8        29.82S WCI  29
AINSWORTH      CLOUDY    37  30  77 NW9       29.83S WCI  30
BROKEN BOW     CLOUDY    41  28  60 NW13      29.85R
O`NEILL        PTSUNNY   38  32  77 NW16      29.81F WCI  30
ORD            SUNNY     39  30  70 NW13      29.84S WCI  31
THEDFORD       SUNNY     43  28  56 NW10      29.85S
$$

NEZ041-046>049-061>064-073>077-083>087-141700-
SOUTH CENTRAL NEBRASKA

CITY           SKY/WX    TMP DP  RH WIND       PRES   REMARKS
GRAND ISLAND   SUNNY     39  29  67 NW14      29.86F WCI  31
AURORA         SUNNY     38  30  72 NW13      29.86F WCI  30
HASTINGS       CLOUDY    35  27  72 NW8       29.86F WCI  29
HEBRON         SUNNY     36  26  65 W5        29.88F WCI  32
HOLDREGE       SUNNY     37  26  67 W5        29.87F WCI  33
KEARNEY *      CLOUDY    39  27  60 W12       29.87F WCI  32
YORK           CLOUDY    37  32  81 W14       29.86S WCI  29
$$

NEZ011>018-030>034-042>045-141700-
NORTHEAST NEBRASKA

CITY           SKY/WX    TMP DP  RH WIND       PRES   REMARKS
NORFOLK        CLOUDY    30  26  85 NW6       29.81F WCI  24
ALBION         PTSUNNY   39  32  74 NW13      29.82S WCI  32
BLAIR          CLOUDY    24  16  70 S10       29.85S WCI  14
COLUMBUS *     CLOUDY    34  25  69 W6        29.83F WCI  29
FREMONT        CLOUDY    26  18  70 S3        29.85F
TEKAMAH        CLOUDY    23  15  71 S13       29.87F WCI  11
WAYNE          CLOUDY    22  18  86 S3        29.84F
$$

NEZ050>053-065>068-078-088>093-141700-
SOUTHEAST NEBRASKA

CITY           SKY/WX    TMP DP  RH WIND       PRES   REMARKS
LINCOLN        CLOUDY    27  20  75 S5        29.88F WCI  22
OMAHA EPPLEY   CLOUDY    25  13  60 S13       29.88F WCI  14
BEATRICE       PTSUNNY   32  20  61 W7        29.89F WCI  26
FALLS CITY     CLOUDY    30  12  47 SW12      29.92F WCI  20
NEBRASKA CITY  CLOUDY    29  12  48 SW15      29.89F WCI  18
PLATTSMOUTH    CLOUDY    27  14  57 S10       29.87F WCI  18
$$

NEZ044-045-051>053-067-141700-
OMAHA AREA

CITY           SKY/WX    TMP DP  RH WIND       PRES   REMARKS
OMAHA EPPLEY   CLOUDY    25  13  60 S13       29.88F WCI  14
BLAIR          CLOUDY    24  16  70 S10       29.85S WCI  14
FREMONT        CLOUDY    26  18  70 S3        29.85F
MILLARD        CLOUDY    27  15  61 S6        29.87F WCI  20
OFFUTT AFB     CLOUDY    27  12  55 S8        29.87F WCI  18
PLATTSMOUTH    CLOUDY    27  14  57 S10       29.87F WCI  18
WAHOO          CLOUDY    28  21  75 SW7       29.85F WCI  20
$$



USA.gov is the U.S. government's official web portal to all federal, state and local government web resources and services.